Zurück zum Katalog

SL-23 R/B

AktivHEO
NORAD 34112·ROCKET BODY·🇷🇺 Russia

Gestartet Feb 26, 2009 von Baikonur Cosmodrome

Loading…

Nächste Überflüge (nächste 24 Stunden)

TLE

AktuellSource: Space-Track

Epoche: Sep 14, 2026, 01:49 UTC

1 34112U 09009B   26257.07627737  .00000000  00000-0  00000-0 0  9990
2 34112  34.5527 245.6247 6929208 203.2110 297.1667  2.20447639141320

Verfolge SL-23 R/B in Echtzeit mit AllMySat

Download on the App Store